Location: Unspecified
(42.3650°N, 71.1030°W)
Time: 00:09:38
(UTC+00:00)

deb Kosmos-1375 - Visible Passes

Search period start: 16 September 2024 00:00
Search period end: 26 September 2024 00:00
Orbit: 941 x 1020 km, 65.8° (Epoch: 15 September)

Date Brightness Start Highest point End Pass type
(mag) Time Alt. Az. Time Alt. Az. Time Alt. Az.
16 Sep ? 09:41:19 10° S 09:47:10 40° ESE 09:53:08 10° NE visible
17 Sep ? 08:25:02 10° ESE 08:27:23 12° E 08:29:45 10° E visible
18 Sep ? 08:48:45 10° SSE 08:53:52 26° ESE 08:59:05 10° NE visible
19 Sep ? 09:14:29 10° S 09:20:36 51° ESE 09:26:52 10° NE visible
20 Sep ? 07:56:54 10° SE 08:00:40 16° ESE 08:04:29 10° ENE visible
20 Sep ? 09:41:11 10° SSW 09:47:34 86° WNW 09:54:08 10° NNE visible
21 Sep ? 08:21:39 10° S 08:27:14 33° ESE 08:32:57 10° NE visible
22 Sep ? 08:48:22 13° SSW 08:54:02 65° ESE 09:00:29 10° NE visible
23 Sep ? 07:30:50 15° SE 07:33:58 22° ESE 07:38:40 10° ENE visible
23 Sep ? 09:15:38 15° SW 09:21:06 70° NW 09:27:38 10° NNE visible
24 Sep ? 07:58:00 29° SSE 08:00:36 42° ESE 08:06:40 10° NE visible
24 Sep ? 09:42:47 11° WSW 09:48:26 40° NW 09:54:33 10° NNE visible
25 Sep ? 06:40:15 13° ESE 06:40:47 13° ESE 06:43:33 10° ENE visible
25 Sep ? 08:25:02 41° SSW 08:27:30 81° ESE 08:34:03 10° NE visible
